Location: Azul
(36.7830°S, 59.8500°W)
Time: 00:05:44
(UTC-03:00)

DELFI C3 - Pass Details

Date: 29 October 2021
Orbit: 529 x 543 km, 97.4° (Epoch: 30 November)

Event Time Altitude Azimuth Distance (km) Brightness Sun altitude
Rises 20:42:52 0° 165° (SSE) 2,732 ? -14.2°
Reaches altitude 10° 20:45:02 10° 162° (SSE) 1,828 ? -14.6°
Maximum altitude 20:48:57 64° 80° (E) 605 ? -15.3°
Drops below altitude 10° 20:52:48 10° 357° (N) 1,792 ? -15.9°
Enters shadow 20:52:55 - 357° (N) 1,841 ? -16.0°
